Raleigh Durham International Airport
KRDU : rendu visible

Aérodrome :











RETROUVEZ-NOUS SUR...

 
LOGIN :

S'inscrire | Disclaimer

   EN    FR    IT 

 









Légende :    VFR   VFR Marginal   IFR   IFR Intensif   IFR Très Intensif
Visi : 
Plafond : 
>= 8 km
>= 3000ft
5 à 8 km
1000 à 3000 ft
1500m à 5 km
500 à 1000 ft
800 à 1500m
200 à 500 ft
< 800m
< 200 ft
Symboles :   Orages  Brouillard  Fortes neiges  Fortes précipitations  Vent > 20 kt






- Altitude de l'aérodrome : 435 ft
- Code IATA : RDU


KRDU - Raleigh Durham International

DERNIER METAR :
  • 031351Z 24011KT 10SM SCT250 26/19 A2997 RMK AO2 SLP143 T02560194

METARs EXPIRÉS :
  • 031251Z 24009KT 10SM SCT250 24/18 A2997 RMK AO2 SLP145 T02390183
  • 031151Z 24011KT 10SM BKN250 22/18 A2998 RMK AO2 SLP147 T02170178 10222 20194 50001

TAF KRDU
Valide du 03 à 12h jusqu'au 04 à 12h UTC


031120Z 0312/0412 23010KT P6SM SCT250
FM031600 24011G18KT P6SM FEW050 SCT250
FM040000 22007KT P6SM SCT250
FIR KZDC / Amérique du Nord



MET'MAP, la Météo Aéronautique d'un coup d'oeil ! - Copyright ORBIFLY Décembre 2007 - Disclaimer

ORBIFLY MET'MAP TEAM :

Programmation & Développement : Alexandra Zaïnal
Sur une idée originale de : Baudouin d'Aumeries
Assistance à la programmation : Marc-Olivier Méhu
Soutien technique & logistique : Manuel Goepfert

Contact : metmap@orbifly.com




SOURCES & CREDITS :

   NOAA       Earth
Advisory